map of RGL home
Great Circle Mapper logo
RGL - Airport
Location
City:  Rio Gallegos, Santa Cruz, Argentina
ICAO / IATA:SAWG / RGL

Details
Type:Airport (Aerodrome, Airfield)
Use:Public/Civil, Military
Latitude:5136'32"S (-51.608874)
Longitude:6918'45"W (-69.312635)
Datum:WGS 1984
Elevation:61 ft (19 m)
Variation:11.5E (WMM2015 magnetic declination)
Runways:1
Longest:11647 × 148 ft (3550 × 45 m), paved

Time
Time Zone:UTC-3
Local Time:

Weather
METAR:SAWG 222100Z 25035G52KT 9999 SCT040 BKN090 15/02 Q0993 RESHRA
TAF:SAWG 221700Z 2218/2318 32015KT 9999 FEW035 BKN070 OVC100 TX19/2219Z TN06/2309Z
BECMG 2218/2220 27020G30KT 9999 -DZ BKN030 OVC060
BECMG 2304/2306 26015KT
BECMG 2312/2314 27030KT 9999 -DZ FEW020 BKN030

Related Locations
Nearby:
Farthest:HTA: 12321 mi / 19829 km
Chita, Chita [Kadala], RU

Find:

   beyond  
but within

Other Information
Maps:
NOTAMs:
Links:
Sources:

  
flag of Argentina
flag of Santa Cruz
  

Sectional Chart

Flight Planning
at skyvector.com

Satellite Image

Google Maps Satellite View

 

Copyright © 2004-2014 Karl L. Swartz. All rights reserved.
The Great Circle Mapper name and logo are trademarks of the Great Circle Mapper.
All other trademarks mentioned herein belong to their respective owners.
Please see credits for attibutions and further copyright information.

  Follow gcmap on Facebook Follow gcmap on Twitter

hCard Microformat

Geo Microformat